{"data":{"norad_id":58402,"epoch":"2026-05-24T23:28:41.367648Z","epoch_age_seconds":74049,"freshness":"FRESH","line1":"1 58402U 23180A   26144.97825657  .00000822  00000+0  39405-4 0  9995","line2":"2 58402  43.0047 341.6840 0001111 278.0894  81.9832 15.27570915139294","mean_motion":15.27570915,"eccentricity":0.0001111,"inclination_deg":43.0047,"raan_deg":341.684,"arg_perigee_deg":278.0894,"mean_anomaly_deg":81.9832,"bstar":3.9405e-5,"rev_number":13929,"period_min":94.267309351069,"perigee_km":482.31401913517,"apogee_km":483.83858073041,"semimajor_km":6861.2132999328,"source":"CELESTRAK","updated_at":"2026-05-25T13:38:18.616387Z"}}